| time (UTC) | temp C | wind direction | speed KPH | gust KPH | rain 1hr cm | rain 24hr cm | rain mn cm | humidity % | barometer mb |
| 20260504003011 | 17 | 317 | 6.4 | 17.7 | 0.00 | 0.00 | 0.00 | 29 | 1004.0 |
| 20260504001511 | 18 | 317 | 14.5 | 24.1 | 0.00 | 0.00 | 0.00 | 28 | 1004.0 |
| 20260504000011 | 18 | 305 | 12.9 | 25.7 | 0.00 | 0.00 | 0.00 | 28 | 1003.9 |
| 20260503234516 | 18 | 303 | 16.1 | 29.0 | 0.00 | 0.00 | 0.00 | 28 | 1003.9 |
| 20260503233008 | 19 | 288 | 19.3 | 30.6 | 0.00 | 0.00 | 0.00 | 26 | 1003.8 |
| 20260503231506 | 20 | 290 | 12.9 | 27.4 | 0.00 | 0.00 | 0.00 | 28 | 1003.8 |
| 20260503230006 | 20 | 280 | 17.7 | 35.4 | 0.00 | 0.00 | 0.00 | 29 | 1003.7 |
| 20260503224505 | 20 | 269 | 8.0 | 29.0 | 0.00 | 0.00 | 0.00 | 30 | 1003.6 |
| 20260503223005 | 20 | 261 | 22.5 | 38.6 | 0.00 | 0.00 | 0.00 | 29 | 1003.6 |
| 20260503221503 | 21 | 311 | 17.7 | 29.0 | 0.00 | 0.00 | 0.00 | 31 | 1003.8 |
| 20260503220003 | 21 | 299 | 24.1 | 33.8 | 0.00 | 0.00 | 0.00 | 30 | 1003.7 |
| 20260503214508 | 21 | 277 | 17.7 | 38.6 | 0.00 | 0.00 | 0.00 | 32 | 1003.6 |
| 20260503213002 | 21 | 359 | 14.5 | 25.7 | 0.00 | 0.00 | 0.00 | 34 | 1003.5 |
| 20260503211614 | 21 | 26 | 14.5 | 25.7 | 0.00 | 0.00 | 0.00 | 34 | 1003.6 |
| 20260503210059 | 21 | 286 | 16.1 | 30.6 | 0.00 | 0.00 | 0.00 | 30 | 1003.7 |
| 20260503204559 | 21 | 302 | 19.3 | 38.6 | 0.00 | 0.00 | 0.00 | 33 | 1003.8 |
| 20260503203056 | 21 | 242 | 17.7 | 32.2 | 0.00 | 0.00 | 0.00 | 36 | 1003.8 |
| 20260503201554 | 20 | 317 | 17.7 | 33.8 | 0.00 | 0.00 | 0.00 | 37 | 1003.9 |
| 20260503194602 | 21 | 354 | 16.1 | 37.0 | 0.00 | 0.00 | 0.00 | 39 | 1004.3 |
| 20260503193101 | 21 | 23 | 17.7 | 37.0 | 0.00 | 0.00 | 0.00 | 38 | 1004.3 |
| 20260503191554 | 21 | 301 | 11.3 | 29.0 | 0.00 | 0.00 | 0.00 | 42 | 1004.3 |
| 20260503190049 | 20 | 333 | 19.3 | 32.2 | 0.00 | 0.00 | 0.00 | 39 | 1004.4 |
| 20260503184558 | 19 | 359 | 6.4 | 24.1 | 0.00 | 0.00 | 0.00 | 41 | 1004.4 |
| 20260503183044 | 20 | 275 | 12.9 | 25.7 | 0.00 | 0.00 | 0.00 | 43 | 1004.6 |
| 20260503181602 | 20 | 16 | 12.9 | 29.0 | 0.00 | 0.00 | 0.00 | 45 | 1004.7 |
| 20260503180051 | 19 | 300 | 16.1 | 25.7 | 0.00 | 0.00 | 0.00 | 43 | 1004.9 |
| 20260503174546 | 19 | 278 | 6.4 | 20.9 | 0.00 | 0.00 | 0.00 | 47 | 1005.0 |
| 20260503173049 | 18 | 252 | 12.9 | 24.1 | 0.00 | 0.00 | 0.00 | 46 | 1005.1 |
| 20260503171535 | 18 | 321 | 4.8 | 24.1 | 0.00 | 0.00 | 0.00 | 44 | 1005.2 |
| 20260503081541 | 11 | 191 | 4.8 | 12.9 | 0.00 | 0.00 | 0.00 | 62 | 1007.0 |
| 20260503071527 | 11 | 205 | 4.8 | 9.7 | 0.00 | 0.00 | 0.00 | 65 | 1007.6 |
| 20260503054516 | 11 | 215 | 3.2 | 11.3 | 0.00 | 0.00 | 0.00 | 63 | 1009.0 |
| 20260503053010 | 11 | 205 | 4.8 | 16.1 | 0.00 | 0.00 | 0.00 | 65 | 1009.3 |
| 20260503051515 | 12 | 295 | 3.2 | 17.7 | 0.00 | 0.00 | 0.00 | 65 | 1009.3 |
| 20260503050006 | 12 | 244 | 6.4 | 14.5 | 0.00 | 0.00 | 0.00 | 57 | 1009.3 |
| 20260503044504 | 12 | 221 | 4.8 | 12.9 | 0.00 | 0.00 | 0.00 | 57 | 1009.3 |
| 20260503043002 | 12 | 226 | 6.4 | 17.7 | 0.00 | 0.00 | 0.00 | 55 | 1009.5 |
| 20260503041502 | 12 | 244 | 8.0 | 14.5 | 0.00 | 0.00 | 0.00 | 55 | 1009.6 |
| 20260503040105 | 12 | 232 | 6.4 | 17.7 | 0.00 | 0.00 | 0.00 | 54 | 1009.7 |
| 20260503034604 | 12 | 234 | 9.7 | 17.7 | 0.00 | 0.00 | 0.00 | 55 | 1009.9 |
| 20260503033059 | 11 | 224 | 6.4 | 9.7 | 0.00 | 0.00 | 0.00 | 56 | 1010.0 |
| 20260503031556 | 12 | 207 | 9.7 | 11.3 | 0.00 | 0.00 | 0.00 | 57 | 1010.2 |
| 20260503030124 | 12 | 213 | 6.4 | 12.9 | 0.00 | 0.00 | 0.00 | 52 | 1010.5 |
| 20260503024554 | 12 | 244 | 4.8 | 12.9 | 0.00 | 0.00 | 0.00 | 51 | 1010.7 |
| 20260503023053 | 12 | 226 | 3.2 | 8.0 | 0.00 | 0.00 | 0.00 | 52 | 1010.6 |
| 20260503021559 | 12 | 228 | 4.8 | 9.7 | 0.00 | 0.00 | 0.00 | 52 | 1010.7 |
| 20260503020051 | 12 | 207 | 8.0 | 12.9 | 0.00 | 0.00 | 0.00 | 52 | 1010.5 |
| 20260503014602 | 12 | 215 | 9.7 | 12.9 | 0.00 | 0.00 | 0.00 | 51 | 1010.7 |
| 20260503013052 | 13 | 219 | 4.8 | 9.7 | 0.00 | 0.00 | 0.00 | 50 | 1010.8 |
| 20260503011554 | 13 | 212 | 4.8 | 8.0 | 0.00 | 0.00 | 0.00 | 50 | 1010.8 |
| 20260503010100 | 13 | 221 | 4.8 | 8.0 | 0.00 | 0.00 | 0.00 | 47 | 1010.9 |
| 20260503004546 | 14 | 220 | 4.8 | 9.7 | 0.00 | 0.00 | 0.00 | 44 | 1010.9 |